Weather History for Hutchinson, KS

Change the Weather History Date:

Saturday, November 10, 2012

  Actual Average Record
Temperature  
Mean Temperature 66 °F -  
Max Temperature 75 °F 55 °F 75 °F (2012)
Min Temperature 57 °F 32 °F 18 °F (1997)
Cooling Degree Days 1    
Growing Degree Days 16 (Base 50)    
Moisture  
Dew Point 54 °F    
Average Humidity 66    
Maximum Humidity 88    
Minimum Humidity 51    
Precipitation  
Precipitation 0.30 in - - ()
Sea Level Pressure  
Sea Level Pressure 29.62 in    
Wind  
Wind Speed 23 mph (SSW)    
Max Wind Speed 34 mph    
Max Gust Speed 48 mph    
Visibility 9 miles    
Events Rain , Thunderstorm    
Averages and records for this station are not official NWS values.
T = Trace of Precipitation, MM = Missing Value Source: NWS Daily Summary

Daily Weather History Graph

Daily Weather History Graph

Search for Another Location

Airport:

Trip Planner

Search our weather history database for the weather conditions in past years. The results will help you decide how hot, cold, wet, or windy it might be!

Date:

Astronomy

Nov. 10, 2012 Rise Set
Actual Time 7:07 AM CST 5:22 PM CST
Civil Twilight 6:39 AM CST 5:50 PM CST
Nautical Twilight 6:07 AM CST 6:22 PM CST
Astronomical Twilight 5:36 AM CST 6:53 PM CST
Moon 3:17 AM CST (11/10) 3:08 PM CST (11/10)
Length of Visible Light 11h 11m
Length of Day
10h 15m
Waning Crescent, 14% of the Moon is Illuminated
Nov 10
Waning Crescent
Nov 13
New
Nov 20
First Quarter
Nov 28
Full
Dec 6
Last Quarter

Hourly Weather History & Observations

Time (CST) Temp. Dew Point Humidity Pressure Visibility Wind Dir Wind Speed Gust Speed Precip Events Conditions
12:52 AM 70.0 °F 54.0 °F 57% 29.64 in 10.0 mi South 20.7 mph 29.9 mph N/A   Clear
1:52 AM 68.0 °F 54.0 °F 61% 29.64 in 10.0 mi SSW 21.9 mph 29.9 mph N/A   Clear
2:52 AM 66.9 °F 54.0 °F 63% 29.65 in 10.0 mi SSW 19.6 mph - N/A   Clear
3:52 AM 66.9 °F 53.1 °F 61% 29.66 in 10.0 mi South 19.6 mph 26.5 mph N/A   Clear
4:52 AM 66.0 °F 53.1 °F 63% 29.66 in 10.0 mi South 19.6 mph - N/A   Clear
6:52 AM 64.9 °F 53.1 °F 65% 29.67 in 10.0 mi South 13.8 mph - N/A   Clear
7:52 AM 64.0 °F 53.1 °F 67% 29.68 in 10.0 mi South 15.0 mph - N/A   Clear
8:52 AM 66.9 °F 54.0 °F 63% 29.69 in 10.0 mi South 23.0 mph 31.1 mph N/A   Clear
9:52 AM 69.1 °F 54.0 °F 58% 29.66 in 10.0 mi South 33.4 mph 46.0 mph N/A   Clear
10:52 AM 70.0 °F 55.0 °F 59% 29.65 in 9.0 mi South 34.5 mph 42.6 mph N/A   Clear
11:52 AM 72.0 °F 55.9 °F 57% 29.62 in 9.0 mi South 32.2 mph 39.1 mph N/A   Scattered Clouds
12:52 PM 75.0 °F 55.9 °F 51% 29.59 in 10.0 mi South 33.4 mph 47.2 mph N/A   Scattered Clouds
1:52 PM 73.0 °F 55.9 °F 55% 29.56 in 8.0 mi South 29.9 mph 46.0 mph N/A   Scattered Clouds
2:52 PM 73.0 °F 55.9 °F 55% 29.55 in 9.0 mi South 29.9 mph 48.3 mph N/A   Partly Cloudy
3:52 PM 73.0 °F 55.9 °F 55% 29.55 in 10.0 mi South 31.1 mph 43.7 mph N/A   Partly Cloudy
4:52 PM 72.0 °F 55.9 °F 57% 29.56 in 10.0 mi South 25.3 mph 34.5 mph N/A   Partly Cloudy
5:52 PM 71.1 °F 55.9 °F 59% 29.55 in 10.0 mi South 26.5 mph 34.5 mph N/A   Partly Cloudy
6:52 PM 70.0 °F 55.0 °F 59% 29.53 in 10.0 mi SSE 32.2 mph 41.4 mph N/A   Clear
7:52 PM 70.0 °F 55.0 °F 59% 29.51 in 10.0 mi South 27.6 mph 43.7 mph N/A   Partly Cloudy
8:52 PM 68.0 °F 55.9 °F 65% 29.54 in 9.0 mi South 31.1 mph 44.9 mph 0.00 in Rain Light Rain
9:04 PM 68.0 °F 55.4 °F 64% 29.61 in 10.0 mi South 27.6 mph 43.7 mph 0.00 in Rain , Thunderstorm Light Rain
9:39 PM 59.0 °F 48.2 °F 67% 29.67 in 6.0 mi West 8.1 mph 40.3 mph 0.02 in Rain , Thunderstorm Rain
9:49 PM 57.2 °F 51.8 °F 82% 29.69 in 1.8 mi SW 17.3 mph 25.3 mph 0.19 in Rain , Thunderstorm Heavy Thunderstorms and Rain
9:52 PM 57.0 °F 52.0 °F 83% 29.65 in 1.5 mi WSW 15.0 mph 25.3 mph 0.22 in Rain , Thunderstorm Heavy Thunderstorms and Rain
10:01 PM 59.0 °F 55.4 °F 88% 29.65 in 2.5 mi South 18.4 mph 24.2 mph 0.07 in Rain , Thunderstorm Thunderstorms and Rain
10:09 PM 59.0 °F 55.4 °F 88% 29.63 in 8.0 mi South 16.1 mph 26.5 mph 0.07 in Rain , Thunderstorm Light Thunderstorms and Rain
10:52 PM 59.0 °F 53.1 °F 81% 29.64 in 10.0 mi SSW 17.3 mph - 0.08 in Rain , Thunderstorm Light Thunderstorms and Rain
11:02 PM 59.0 °F 53.6 °F 82% 29.69 in 10.0 mi SW 17.3 mph - 0.00 in Rain Light Rain
11:37 PM 60.8 °F 53.6 °F 77% 29.67 in 10.0 mi West 17.3 mph 26.5 mph 0.00 in Thunderstorm Overcast
11:52 PM 57.0 °F 51.1 °F 81% 29.68 in 10.0 mi West 13.8 mph 21.9 mph 0.00 in Rain , Thunderstorm Light Thunderstorms and Rain